Weather Roundup
Issued by NWS Springfield, MO

Home | Current Version | Previous Version | Text Only | Print | Product List | Glossary On
Versions: 1 2 3 4 5 6 7 8 9 10 11 12 13 14 15 16 17 18 19 20 21 22 23 24 25 26 27 28 29 30 31 32 33 34 35 36 37 38 39 40 41 42 43 44 45 46 47 48 49 50
000
NZUS99 KSGF 280907
HRRSGF

HOURLY WEATHER
NATIONAL WEATHER SERVICE SPRINGFIELD MO
400 AM CDT SAT MAR 28 2015

......SGF CWA......

CITY           SKY/WX    TMP DP  RH WIND       PRES   REMARKS
SPRINGFIELD    CLOUDY    39  23  52 SE7       30.09F WCI  34
JOPLIN         MOCLDY    40  27  59 SE6       30.08F
WEST PLAINS    CLOUDY    36  20  52 SE7       30.13F WCI  30
ROLLA          CLOUDY    33  22  63 SE6       30.12S WCI  28
OSAGE BEACH    CLOUDY    37  27  65 S3        30.14S
BRANSON        CLOUDY    39  23  52 CALM      30.11F

......SURROUNDING SGF CWA......

CITY           SKY/WX    TMP DP  RH WIND       PRES   REMARKS
CHANUTE        CLOUDY    41  29  62 S9        30.07F
PARSONS        CLOUDY    43  31  62 SE3       30.09S
COFFEYVILLE    CLOUDY    44  31  60 SE7       30.08S
EMPORIA        CLOUDY    39  25  57 SE8       30.04F WCI  33
GROVE OK       CLOUDY    43  32  65 CALM      30.12R
ROGERS AR      MOCLDY    41  27  57 SE8       30.10F
SILOAM SPRINGS CLOUDY    41  27  56 SE6       30.10F
HARRISON AR    CLOUDY    40  26  57 SE5       30.10F
NEAR YELLVILLE CLOUDY    39  28  65 E5        30.13F

......KANSAS AND MISSOURI......

CITY           SKY/WX    TMP DP  RH WIND       PRES   REMARKS
KANSAS CTY INT CLOUDY    38  24  57 E12       30.10S WCI  30
DOWNTOWN KC    CLOUDY    40  23  50 E8        30.10F WCI  34
COLUMBIA       CLOUDY    33  23  66 E8        30.14S WCI  26
SEDALIA        LGT SNOW  34  30  85 SE7       30.13F FOG     WCI  28
ST JOSEPH      CLOUDY    36  27  69 E9        30.12S WCI  29
ST LOUIS       MOCLDY    28  18  66 E5        30.20S WCI  23
SPIRIT OF STL  PTCLDY    27  20  75 CALM      30.19S
KIRKSVILLE     CLOUDY    29  19  66 E5        30.16S WCI  24
WICHITA        PTCLDY    42  30  62 S10       29.99F
TOPEKA         CLOUDY    40  24  53 SE8       30.08F WCI  34
OLATHE         CLOUDY    38  23  55 SE8       30.08F WCI  32

......TENNESSEE......

CITY           SKY/WX    TMP DP  RH WIND       PRES   REMARKS
MEMPHIS        PTCLDY    37  21  52 SE6       30.19R WCI  32
NASHVILLE      CLEAR     30  19  63 N6        30.16S WCI  24

......ARKANSAS.......

CITY           SKY/WX    TMP DP  RH WIND       PRES   REMARKS
FAYETTEVILLE   CLOUDY    39  35  86 CALM      30.10F
FT SMITH       CLOUDY    46  31  55 E3        30.11F
LITTLE ROCK    CLOUDY    45  32  60 CALM      30.17F

......OKLAHOMA.......

CITY           SKY/WX    TMP DP  RH WIND       PRES   REMARKS
TULSA          LGT RAIN  47  29  49 SE12      30.05F
PONCA CITY     PTCLDY    43  32  65 SE9       30.01F
MCALESTER      MOCLDY    45  33  63 S3        30.08F
OKLAHOMA CITY  MOCLDY    45  37  73 S10       30.02F

......IOWA............

CITY           SKY/WX    TMP DP  RH WIND       PRES   REMARKS
DES MOINES     CLOUDY    33  11  39 SE7       30.16S WCI  27
QUAD CITIES    PTCLDY    20  12  71 E6        30.22R WCI  12

......ILLINOIS........

CITY           SKY/WX    TMP DP  RH WIND       PRES   REMARKS
QUINCY         PTCLDY    26  15  63 SE6       30.18S WCI  19
CHICAGO        PTCLDY    21  13  71 N6        30.22S WCI  13




USA.gov is the U.S. government's official web portal to all federal, state and local government web resources and services.